Regional Weather Roundup
Issued by NWS Goodland, KS

Home | Current Version | Previous Version | Graphics & Text | Print | Product List | Glossary On
Versions: 1 2 3 4 5 6 7 8 9 10 11 12 13 14 15 16 17 18 19 20 21 22 23 24 25 26 27 28 29 30 31 32 33 34 35 36 37 38 39 40 41 42 43 44 45 46 47 48 49 50
000
ASUS43 KGLD 201308
RWRGLD

GOODLAND FORECAST AREA HOURLY WEATHER ROUNDUP
NATIONAL WEATHER SERVICE GOODLAND KS
700 AM MDT SUN APR 20 2014

...OFFICIAL OBSERVATIONS...

CITY           SKY/WX    TMP DP  RH WIND       PRES   REMARKS
GOODLAND KS    PTSUNNY   44  44 100 CALM      30.00S FOG
HILL CITY KS   PTSUNNY   55  48  77 S7        30.00R
IMPERIAL NEB   PTSUNNY   44  40  85 N6        30.01S
MCCOOK NEB     CLOUDY    50  46  86 CALM      29.99R
AKRON CO       CLOUDY    43  39  86 SE3       30.04R
BURLINGTON CO  CLOUDY    46  43  89 N3        30.01R FOG
LIMON CO       CLOUDY    43  40  89 N8        30.04R
$$

...UNOFFICIAL OBSERVATIONS...

CITY           SKY/WX    TMP DP  RH WIND       PRES   REMARKS
COLBY KS       CLOUDY    54  54 100 CALM      30.00R
LENORA KS        N/A     57  32  39 S12         N/A
LEOTI KS         N/A     53  32  44 CALM        N/A
NORTON KS      SUNNY     54  48  82 SW3       29.98R
OBERLIN KS     FAIR      52  50  93 E3        29.99R
SHARON SPRINGS   N/A     45  43  93 CALM        N/A
ST FRANCIS KS  CLOUDY    46  43  87 N3        30.00R FOG
WAKEENEY KS      N/A     57  47  69 MISG        N/A
KIT CARSON CO    N/A     47  43  87 MISG        N/A
$$



USA.gov is the U.S. government's official web portal to all federal, state and local government web resources and services.